Simultaneous Nadir Overpasses (SNOs) Predictions

Prediction of SNOs between METOP-B and NOAA-19 Satellite Orbit:

Table of predicted SNOs for the next 14.0 days since TLE Epoch: 2/13/2016
Index Date (METOP-B) Time (METOP-B) Lat,Lon (METOP-B) SZA (METOP-B ) Date (NOAA-19) Time (NOAA-19) Lat,Lon (NOAA-19) SZA (NOAA-19 ) Distance(km) Time Diff (sec)
1 02/19/2016 13:25:04 75.78, -22.05 87.09 02/19/2016 13:23:58 75.77, -22.00 87.08 1.71 66
2 02/19/2016 14:15:46 -75.75, 145.20 92.95 02/19/2016 14:14:53 -75.75, 145.35 92.96 4.14 53
3 02/19/2016 15:06:26 75.75, -47.46 87.04 02/19/2016 15:06:00 75.76, -47.47 87.05 0.43 26
4 02/19/2016 15:57:08 -75.73, 119.79 93.00 02/19/2016 15:56:55 -75.74, 119.87 92.99 2.46 13
5 02/19/2016 16:47:48 75.73, -72.87 87.00 02/19/2016 16:48:02 75.75, -72.94 87.01 2.58 14
6
